Regional Weather Roundup
Issued by NWS

Home | Current Version | Previous Version | Graphics & Text | Print | Product List | Glossary On
Versions: 1 2 3 4 5 6 7 8 9 10 11 12 13 14 15 16 17 18 19 20 21 22 23 24 25 26 27 28 29 30 31 32 33 34 35 36 37 38 39 40 41 42 43 44 45 46 47 48 49 50
000
ASUS43 KFSD 212110
RWRSD

WEATHER ROUNDUP FOR SOUTH DAKOTA
NATIONAL WEATHER SERVICE SIOUX FALLS SD
400 PM CDT MON AUG 21 2017

NOTE: "FAIR" INDICATES FEW OR NO CLOUDS BELOW 12,000 FEET WITH NO
SIGNIFICANT WEATHER AND/OR OBSTRUCTIONS TO VISIBILITY.


SDZ001>005-009-010-012>017-212200-
NORTHWEST AND NORTH CENTRAL SOUTH DAKOTA

CITY           SKY/WX    TMP DP  RH WIND       PRES   REMARKS
BUFFALO          N/A     79  37  22 N16G28    30.06S
FAITH            N/A     80  40  23 N20G31    30.06S
MOBRIDGE       SUNNY     80  55  42 NW17G25   29.95S
$$

SDZ012>016-024>037-041>051-057-063-072>074-212200-
SOUTHWEST AND SOUTH CENTRAL SOUTH DAKOTA

CITY           SKY/WX    TMP DP  RH WIND       PRES   REMARKS
RAPID CTY ARPT CLOUDY    79  43  27 N20G25    30.12F
PIERRE         SUNNY     77  65  66 NW15      29.97S
CUSTER         CLOUDY    72  36  26 NE15G21   30.22F
ELLSWORTH AFB  PTSUNNY   79  40  25 NW23      30.11F
PHILIP         SUNNY     84  60  44 NW22G29   30.01S
PINE RIDGE     SUNNY     81  57  43 N13       30.10S
SPEARFISH      FAIR      75  37  25 VRB6G15   30.17F
WINNER         FAIR      76  67  73 NW10      29.99S
$$

SDZ004>011-016>023-039-040-212200-
NORTHEAST SOUTH DAKOTA

CITY           SKY/WX    TMP DP  RH WIND       PRES   REMARKS
ABERDEEN       CLOUDY    77  62  59 NW16      29.93S
WATERTOWN      CLOUDY    69  62  78 NW15      29.91R
BROOKINGS      CLOUDY    69  63  81 SW5       29.91S
SISSETON         N/A     74  62  66 NW15      29.87F
$$

SDZ017-020-022-023-036>040-048>070-212200-
SOUTHEAST SOUTH DAKOTA

CITY           SKY/WX    TMP DP  RH WIND       PRES   REMARKS
SIOUX FALLS    CLOUDY    67  65  93 SE8       29.84R
HURON          CLOUDY    73  64  73 N16       29.92S
CHAMBERLAIN    MOSUNNY   78  68  72 W12       29.97S
MITCHELL       CLOUDY    79  66  64 NW14      29.93R
YANKTON        LGT RAIN  66  64  94 SW5       29.94R
$$

ABBREVIATIONS USED IN REMARKS
   TC - TEMPERATURE IN CELSIUS
  WCI - WIND CHILL INDEX
   HX - HEAT INDEX
  VSB - VISIBILITY





USA.gov is the U.S. government's official web portal to all federal, state and local government web resources and services.